Location: Unspecified
(0.0000°N, 0.0000°E)
Time: 22:13:00
(UTC+00:00)

Vanguard 2 Rocket - Visible Passes

Search period start: 21 December 2014 00:00
Search period end: 31 December 2014 00:00
Orbit: 554 x 3334 km, 32.9° (Epoch: 20 December)

Date Brightness Start Highest point End Pass type
(mag) Time Alt. Az. Time Alt. Az. Time Alt. Az.
21 Dec 8.4 03:34:48 17° SSE 03:35:15 18° SE 03:38:06 10° ESE visible
21 Dec 10.4 19:28:20 10° W 19:43:04 29° SW 19:53:35 10° SSE visible
22 Dec 5.9 04:46:44 16° WSW 04:49:48 75° NW 04:54:48 10° NE visible
22 Dec 10.4 18:24:26 10° W 18:42:31 42° SW 18:55:41 10° SSE visible
22 Dec 10.6 20:55:54 10° SW 21:00:46 12° SSW 21:04:56 10° S visible
23 Dec 7.2 03:52:37 39° ESE 03:52:37 39° ESE 03:55:49 10° ENE visible
23 Dec 10.5 19:48:34 10° WSW 20:00:06 20° SSW 20:08:54 10° SSE visible
24 Dec 7.0 05:04:24 19° WNW 05:06:26 28° NNW 05:10:40 10° NNE visible
24 Dec 10.6 18:43:24 10° W 18:59:15 30° SW 19:11:16 10° SSE visible
25 Dec 7.4 04:10:07 28° NE 04:10:07 28° NE 04:12:22 10° NE visible
25 Dec 10.7 20:10:13 10° SW 20:17:46 14° SSW 20:24:01 10° S visible
26 Dec 8.0 05:21:48 10° NW 05:23:20 12° NNW 05:24:59 10° N visible
26 Dec 10.7 19:03:35 10° WSW 19:16:33 22° SSW 19:26:49 10° SSE visible
27 Dec 8.2 04:27:15 13° NNE 04:27:15 13° NNE 04:27:56 10° NNE visible
27 Dec 10.7 17:58:45 10° W 18:15:09 30° SSW 18:28:37 10° SSE visible
27 Dec 10.6 20:33:01 10° SSW 20:36:04 11° SSW 20:38:51 10° S visible
28 Dec 10.7 19:24:52 10° SW 19:34:32 16° SSW 19:42:31 10° SSE visible
29 Dec 10.8 18:18:52 10° WSW 18:32:46 22° SSW 18:44:22 10° SSE visible
30 Dec 10.7 19:46:15 10° SW 19:53:05 13° SSW 19:58:56 10° S visible
30 Dec 10.1 22:11:49 10° S 22:14:09 11° S 22:15:15 11° SSE visible
